Year,Month,Day,Hour,Minute,Value (Times are PST for temperature in C)
2006,12,01,00,00,2.80
2006,12,01,00,01,2.80
2006,12,01,00,02,2.70
2006,12,01,00,03,2.70
2006,12,01,00,04,2.70
2006,12,01,00,05,2.70
2006,12,01,00,06,2.70
2006,12,01,00,07,2.80
2006,12,01,00,08,2.90
2006,12,01,00,09,2.90
2006,12,01,00,10,3.00
2006,12,01,00,11,3.10
2006,12,01,00,12,3.10
2006,12,01,00,13,3.00
2006,12,01,00,14,2.80
2006,12,01,00,15,2.70
2006,12,01,00,16,2.50
2006,12,01,00,17,2.40
2006,12,01,00,18,2.20
2006,12,01,00,19,2.20
2006,12,01,00,20,2.20
2006,12,01,00,21,2.00
2006,12,01,00,22,1.90
2006,12,01,00,23,1.90
2006,12,01,00,24,1.90
2006,12,01,00,25,2.00
2006,12,01,00,26,2.00
2006,12,01,00,27,1.90
2006,12,01,00,28,1.90
2006,12,01,00,29,1.80
2006,12,01,00,30,1.80
2006,12,01,00,31,1.60
2006,12,01,00,32,1.50
2006,12,01,00,33,1.40
2006,12,01,00,34,1.30
2006,12,01,00,35,1.30
2006,12,01,00,36,1.20
2006,12,01,00,37,1.20
2006,12,01,00,38,1.20
2006,12,01,00,39,1.30
2006,12,01,00,40,1.30
2006,12,01,00,41,1.30
2006,12,01,00,42,1.30
2006,12,01,00,43,1.30
2006,12,01,00,44,1.30
2006,12,01,00,45,1.30
2006,12,01,00,46,1.40
2006,12,01,00,47,1.40
2006,12,01,00,48,1.50
2006,12,01,00,49,1.50
2006,12,01,00,50,1.50
2006,12,01,00,51,1.50
2006,12,01,00,52,1.50
2006,12,01,00,53,1.50
2006,12,01,00,54,1.50
2006,12,01,00,55,1.40
2006,12,01,00,56,1.40
2006,12,01,00,57,1.30
2006,12,01,00,58,1.30
2006,12,01,00,59,1.20
2006,12,01,01,00,1.20
2006,12,01,01,01,1.20
2006,12,01,01,02,1.20
2006,12,01,01,03,1.20
2006,12,01,01,04,1.30
2006,12,01,01,05,1.30
2006,12,01,01,06,1.40
2006,12,01,01,07,1.50
2006,12,01,01,08,1.60
2006,12,01,01,09,1.60
2006,12,01,01,10,1.70
2006,12,01,01,11,1.70
2006,12,01,01,12,1.60
2006,12,01,01,13,1.60
2006,12,01,01,14,1.50
2006,12,01,01,15,1.50
2006,12,01,01,16,1.50
2006,12,01,01,17,1.50
2006,12,01,01,18,1.50
2006,12,01,01,19,1.50
2006,12,01,01,20,1.40
2006,12,01,01,21,1.40
2006,12,01,01,22,1.40
2006,12,01,01,23,1.40
2006,12,01,01,24,1.50
2006,12,01,01,25,1.50
2006,12,01,01,26,1.50
2006,12,01,01,27,1.50
2006,12,01,01,28,1.50
2006,12,01,01,29,1.50
2006,12,01,01,30,1.50
2006,12,01,01,31,1.60
2006,12,01,01,32,1.50
2006,12,01,01,33,1.60
2006,12,01,01,34,1.70
2006,12,01,01,35,1.80
2006,12,01,01,36,1.80
2006,12,01,01,37,1.80
2006,12,01,01,38,1.80
2006,12,01,01,39,1.80
2006,12,01,01,40,1.80
2006,12,01,01,41,1.80
2006,12,01,01,42,1.80
2006,12,01,01,43,1.80
2006,12,01,01,44,1.80
2006,12,01,01,45,1.80
2006,12,01,01,46,1.90
2006,12,01,01,47,1.90
2006,12,01,01,48,2.00
2006,12,01,01,49,2.00
2006,12,01,01,50,2.10
2006,12,01,01,51,2.10
2006,12,01,01,52,2.20
2006,12,01,01,53,2.20
2006,12,01,01,54,2.20
2006,12,01,01,55,2.20
2006,12,01,01,56,2.20
2006,12,01,01,57,2.20
2006,12,01,01,58,2.20
2006,12,01,01,59,2.20
2006,12,01,02,00,2.20
2006,12,01,02,01,2.20
2006,12,01,02,02,2.10
2006,12,01,02,03,2.00
2006,12,01,02,04,2.00
2006,12,01,02,05,2.00
2006,12,01,02,06,1.90
2006,12,01,02,07,1.90
2006,12,01,02,08,1.90
2006,12,01,02,09,1.90
2006,12,01,02,10,1.90
2006,12,01,02,11,1.90
2006,12,01,02,12,1.90
2006,12,01,02,13,1.90
2006,12,01,02,14,1.90
2006,12,01,02,15,1.90
2006,12,01,02,16,1.80
2006,12,01,02,17,1.70
2006,12,01,02,18,1.60
2006,12,01,02,19,1.40
2006,12,01,02,20,1.30
2006,12,01,02,21,1.30
2006,12,01,02,22,1.40
2006,12,01,02,23,1.50
2006,12,01,02,24,1.50
2006,12,01,02,25,1.50
2006,12,01,02,26,1.40
2006,12,01,02,27,1.40
2006,12,01,02,28,1.30
2006,12,01,02,29,1.30
2006,12,01,02,30,1.30
2006,12,01,02,31,1.30
2006,12,01,02,32,1.20
2006,12,01,02,33,1.20
2006,12,01,02,34,1.20
2006,12,01,02,35,1.20
2006,12,01,02,36,1.10
2006,12,01,02,37,1.10
2006,12,01,02,38,1.10
2006,12,01,02,39,1.10
2006,12,01,02,40,1.10
2006,12,01,02,41,1.00
2006,12,01,02,42,1.00
2006,12,01,02,43,0.90
2006,12,01,02,44,0.90
2006,12,01,02,45,0.90
2006,12,01,02,46,0.80
2006,12,01,02,47,0.90
2006,12,01,02,48,0.80
2006,12,01,02,49,0.90
2006,12,01,02,50,0.80
2006,12,01,02,51,0.80
2006,12,01,02,52,0.80
2006,12,01,02,53,0.80
2006,12,01,02,54,0.80
2006,12,01,02,55,0.80
2006,12,01,02,56,0.90
2006,12,01,02,57,1.00
2006,12,01,02,58,1.10
2006,12,01,02,59,1.10
2006,12,01,03,00,1.20
2006,12,01,03,01,1.10
2006,12,01,03,02,0.90
2006,12,01,03,03,0.90
2006,12,01,03,04,0.90
2006,12,01,03,05,1.00
2006,12,01,03,06,1.20
2006,12,01,03,07,1.40
2006,12,01,03,08,1.50
2006,12,01,03,09,1.60
2006,12,01,03,10,1.70
2006,12,01,03,11,1.80
2006,12,01,03,12,1.80
2006,12,01,03,13,1.80
2006,12,01,03,14,1.80
2006,12,01,03,15,1.80
2006,12,01,03,16,1.80
2006,12,01,03,17,1.80
2006,12,01,03,18,1.80
2006,12,01,03,19,1.80
2006,12,01,03,20,1.80
2006,12,01,03,21,1.80
2006,12,01,03,22,1.80
2006,12,01,03,23,1.80
2006,12,01,03,24,1.80
2006,12,01,03,25,1.80
2006,12,01,03,26,1.70
2006,12,01,03,27,1.70
2006,12,01,03,28,1.70
2006,12,01,03,29,1.70
2006,12,01,03,30,1.60
2006,12,01,03,31,1.60
2006,12,01,03,32,1.60
2006,12,01,03,33,1.50
2006,12,01,03,34,1.50
2006,12,01,03,35,1.40
2006,12,01,03,36,1.40
2006,12,01,03,37,1.30
2006,12,01,03,38,1.30
2006,12,01,03,39,1.30
2006,12,01,03,40,1.30
2006,12,01,03,41,1.40
2006,12,01,03,42,1.40
2006,12,01,03,43,1.40
2006,12,01,03,44,1.40
2006,12,01,03,45,1.40
2006,12,01,03,46,1.50
2006,12,01,03,47,1.50
2006,12,01,03,48,1.60
2006,12,01,03,49,1.60
2006,12,01,03,50,1.60
2006,12,01,03,51,1.60
2006,12,01,03,52,1.60
2006,12,01,03,53,1.60
2006,12,01,03,54,1.60
2006,12,01,03,55,1.50
2006,12,01,03,56,1.50
2006,12,01,03,57,1.50
2006,12,01,03,58,1.50
2006,12,01,03,59,1.60
2006,12,01,04,00,1.60
2006,12,01,04,01,1.60
2006,12,01,04,02,1.60
2006,12,01,04,03,1.60
2006,12,01,04,04,1.60
2006,12,01,04,05,1.60
2006,12,01,04,06,1.60
2006,12,01,04,07,1.60
2006,12,01,04,08,1.60
2006,12,01,04,09,1.60
2006,12,01,04,10,1.60
2006,12,01,04,11,1.70
2006,12,01,04,12,1.70
2006,12,01,04,13,1.60
2006,12,01,04,14,1.70
2006,12,01,04,15,1.70
2006,12,01,04,16,1.70
2006,12,01,04,17,1.70
2006,12,01,04,18,1.70
2006,12,01,04,19,1.70
2006,12,01,04,20,1.70
2006,12,01,04,21,1.70
2006,12,01,04,22,1.70
2006,12,01,04,23,1.70
2006,12,01,04,24,1.70
2006,12,01,04,25,1.70
2006,12,01,04,26,1.60
2006,12,01,04,27,1.60
2006,12,01,04,28,1.60
2006,12,01,04,29,1.50
2006,12,01,04,30,1.50
2006,12,01,04,31,1.40
2006,12,01,04,32,1.40
2006,12,01,04,33,1.30
2006,12,01,04,34,1.30
2006,12,01,04,35,1.30
2006,12,01,04,36,1.30
2006,12,01,04,37,1.30
2006,12,01,04,38,1.30
2006,12,01,04,39,1.30
2006,12,01,04,40,1.30
2006,12,01,04,41,1.20
2006,12,01,04,42,1.20
2006,12,01,04,43,1.20
2006,12,01,04,44,1.20
2006,12,01,04,45,1.20
2006,12,01,04,46,1.20
2006,12,01,04,47,1.20
2006,12,01,04,48,1.20
2006,12,01,04,49,1.20
2006,12,01,04,50,1.20
2006,12,01,04,51,1.20
2006,12,01,04,52,1.20
2006,12,01,04,53,1.20
2006,12,01,04,54,1.10
2006,12,01,04,55,1.10
2006,12,01,04,56,1.10
2006,12,01,04,57,1.10
2006,12,01,04,58,1.10
2006,12,01,04,59,1.10
2006,12,01,05,00,1.20
2006,12,01,05,01,1.20
2006,12,01,05,02,1.20
2006,12,01,05,03,1.20
2006,12,01,05,04,1.20
2006,12,01,05,05,1.20
2006,12,01,05,06,1.30
2006,12,01,05,07,1.30
2006,12,01,05,08,1.40
2006,12,01,05,09,1.40
2006,12,01,05,10,1.50
2006,12,01,05,11,1.50
2006,12,01,05,12,1.50
2006,12,01,05,13,1.50
2006,12,01,05,14,1.50
2006,12,01,05,15,1.50
2006,12,01,05,16,1.50
2006,12,01,05,17,1.40
2006,12,01,05,18,1.40
2006,12,01,05,19,1.40
2006,12,01,05,20,1.40
2006,12,01,05,21,1.40
2006,12,01,05,22,1.40
2006,12,01,05,23,1.50
2006,12,01,05,24,1.50
2006,12,01,05,25,1.50
2006,12,01,05,26,1.50
2006,12,01,05,27,1.50
2006,12,01,05,28,1.60
2006,12,01,05,29,1.60
2006,12,01,05,30,1.60
2006,12,01,05,31,1.60
2006,12,01,05,32,1.70
2006,12,01,05,33,1.70
2006,12,01,05,34,1.70
2006,12,01,05,35,1.70
2006,12,01,05,36,1.70
2006,12,01,05,37,1.70
2006,12,01,05,38,1.70
2006,12,01,05,39,1.60
2006,12,01,05,40,1.60
2006,12,01,05,41,1.60
2006,12,01,05,42,1.50
2006,12,01,05,43,1.40
2006,12,01,05,44,1.40
2006,12,01,05,45,1.30
2006,12,01,05,46,1.20
2006,12,01,05,47,1.10
2006,12,01,05,48,1.10
2006,12,01,05,49,1.00
2006,12,01,05,50,1.00
2006,12,01,05,51,1.00
2006,12,01,05,52,0.90
2006,12,01,05,53,0.90
2006,12,01,05,54,0.80
2006,12,01,05,55,0.80
2006,12,01,05,56,0.80
2006,12,01,05,57,0.70
2006,12,01,05,58,0.70
2006,12,01,05,59,0.70
2006,12,01,06,00,0.60
2006,12,01,06,01,0.60
2006,12,01,06,02,0.70
2006,12,01,06,03,0.70
2006,12,01,06,04,0.70
2006,12,01,06,05,0.80
2006,12,01,06,06,0.80
2006,12,01,06,07,0.80
2006,12,01,06,08,0.80
2006,12,01,06,09,0.80
2006,12,01,06,10,0.80
2006,12,01,06,11,0.80
2006,12,01,06,12,0.80
2006,12,01,06,13,0.80
2006,12,01,06,14,0.80
2006,12,01,06,15,0.80
2006,12,01,06,16,0.80
2006,12,01,06,17,0.80
2006,12,01,06,18,0.80
2006,12,01,06,19,0.80
2006,12,01,06,20,0.80
2006,12,01,06,21,0.80
2006,12,01,06,22,0.80
2006,12,01,06,23,0.90
2006,12,01,06,24,0.90
2006,12,01,06,25,0.90
2006,12,01,06,26,1.00
2006,12,01,06,27,1.00
2006,12,01,06,28,1.00
2006,12,01,06,29,1.00
2006,12,01,06,30,1.00
2006,12,01,06,31,1.00
2006,12,01,06,32,1.00
2006,12,01,06,33,1.00
2006,12,01,06,34,1.00
2006,12,01,06,35,0.80
2006,12,01,06,36,0.80
2006,12,01,06,37,0.70
2006,12,01,06,38,0.70
2006,12,01,06,39,0.70
2006,12,01,06,40,0.70
2006,12,01,06,41,0.80
2006,12,01,06,42,0.80
2006,12,01,06,43,0.90
2006,12,01,06,44,0.90
2006,12,01,06,45,1.00
2006,12,01,06,46,1.00
2006,12,01,06,47,1.10
2006,12,01,06,48,1.10
2006,12,01,06,49,1.10
2006,12,01,06,50,1.20
2006,12,01,06,51,1.20
2006,12,01,06,52,1.30
2006,12,01,06,53,1.30
2006,12,01,06,54,1.30
2006,12,01,06,55,1.20
2006,12,01,06,56,1.20
2006,12,01,06,57,1.20
2006,12,01,06,58,1.20
2006,12,01,06,59,1.10
2006,12,01,07,00,1.00
2006,12,01,07,01,0.90
2006,12,01,07,02,0.80
2006,12,01,07,03,0.70
2006,12,01,07,04,0.70
2006,12,01,07,05,0.70
2006,12,01,07,06,0.70
2006,12,01,07,07,0.70
2006,12,01,07,08,0.80
2006,12,01,07,09,0.80
2006,12,01,07,10,0.70
2006,12,01,07,11,0.70
2006,12,01,07,12,0.70
2006,12,01,07,13,0.80
2006,12,01,07,14,0.90
2006,12,01,07,15,1.00
2006,12,01,07,16,1.10
2006,12,01,07,17,1.10
2006,12,01,07,18,1.10
2006,12,01,07,19,1.10
2006,12,01,07,20,1.00
2006,12,01,07,21,1.00
2006,12,01,07,22,0.90
2006,12,01,07,23,0.90
2006,12,01,07,24,1.00
2006,12,01,07,25,1.10
2006,12,01,07,26,1.10
2006,12,01,07,27,1.20
2006,12,01,07,28,1.30
2006,12,01,07,29,1.30
2006,12,01,07,30,1.40
2006,12,01,07,31,1.40
2006,12,01,07,32,1.40
2006,12,01,07,33,1.40
2006,12,01,07,34,1.30
2006,12,01,07,35,1.30
2006,12,01,07,36,1.30
2006,12,01,07,37,1.20
2006,12,01,07,38,1.20
2006,12,01,07,39,1.10
2006,12,01,07,40,1.10
2006,12,01,07,41,1.00
2006,12,01,07,42,0.90
2006,12,01,07,43,0.80
2006,12,01,07,44,0.80
2006,12,01,07,45,0.80
2006,12,01,07,46,0.70
2006,12,01,07,47,0.70
2006,12,01,07,48,0.80
2006,12,01,07,49,0.80
2006,12,01,07,50,0.80
2006,12,01,07,51,0.90
2006,12,01,07,52,1.00
2006,12,01,07,53,1.00
2006,12,01,07,54,1.10
2006,12,01,07,55,1.10
2006,12,01,07,56,1.10
2006,12,01,07,57,1.20
2006,12,01,07,58,1.20
2006,12,01,07,59,1.20
2006,12,01,08,00,1.20
2006,12,01,08,01,1.10
2006,12,01,08,02,1.10
2006,12,01,08,03,1.10
2006,12,01,08,04,1.00
2006,12,01,08,05,0.90
2006,12,01,08,06,0.80
2006,12,01,08,07,0.90
2006,12,01,08,08,1.10
2006,12,01,08,09,1.30
2006,12,01,08,10,1.40
2006,12,01,08,11,1.50
2006,12,01,08,12,1.50
2006,12,01,08,13,1.50
2006,12,01,08,14,1.50
2006,12,01,08,15,1.40
2006,12,01,08,16,1.40
2006,12,01,08,17,1.30
2006,12,01,08,18,1.30
2006,12,01,08,19,1.30
2006,12,01,08,20,1.30
2006,12,01,08,21,1.40
2006,12,01,08,22,1.40
2006,12,01,08,23,1.40
2006,12,01,08,24,1.50
2006,12,01,08,25,1.50
2006,12,01,08,26,1.50
2006,12,01,08,27,1.50
2006,12,01,08,28,1.50
2006,12,01,08,29,1.50
2006,12,01,08,30,1.50
2006,12,01,08,31,1.60
2006,12,01,08,32,1.60
2006,12,01,08,33,1.60
2006,12,01,08,34,1.60
2006,12,01,08,35,1.60
2006,12,01,08,36,1.50
2006,12,01,08,37,1.50
2006,12,01,08,38,1.50
2006,12,01,08,39,1.50
2006,12,01,08,40,1.50
2006,12,01,08,41,1.60
2006,12,01,08,42,1.60
2006,12,01,08,43,1.70
2006,12,01,08,44,1.70
2006,12,01,08,45,1.70
2006,12,01,08,46,1.80
2006,12,01,08,47,1.80
2006,12,01,08,48,1.80
2006,12,01,08,49,1.80
2006,12,01,08,50,1.90
2006,12,01,08,51,2.00
2006,12,01,08,52,2.00
2006,12,01,08,53,2.10
2006,12,01,08,54,2.10
2006,12,01,08,55,2.20
2006,12,01,08,56,2.20
2006,12,01,08,57,2.20
2006,12,01,08,58,2.30
2006,12,01,08,59,2.30
2006,12,01,09,00,2.40
2006,12,01,09,01,2.50
2006,12,01,09,02,2.60
2006,12,01,09,03,2.60
2006,12,01,09,04,2.70
2006,12,01,09,05,2.70
2006,12,01,09,06,2.80
2006,12,01,09,07,2.80
2006,12,01,09,08,2.80
2006,12,01,09,09,2.90
2006,12,01,09,10,2.90
2006,12,01,09,11,2.90
2006,12,01,09,12,2.90
2006,12,01,09,13,3.00
2006,12,01,09,14,3.10
2006,12,01,09,15,3.10
2006,12,01,09,16,3.10
2006,12,01,09,17,3.20
2006,12,01,09,18,3.30
2006,12,01,09,19,3.30
2006,12,01,09,20,3.30
2006,12,01,09,21,3.30
2006,12,01,09,22,3.30
2006,12,01,09,23,3.40
2006,12,01,09,24,3.40
2006,12,01,09,25,3.40
2006,12,01,09,26,3.40
2006,12,01,09,27,3.40
2006,12,01,09,28,3.40
2006,12,01,09,29,3.40
2006,12,01,09,30,3.40
2006,12,01,09,31,3.40
2006,12,01,09,32,3.40
2006,12,01,09,33,3.40
2006,12,01,09,34,3.40
2006,12,01,09,35,3.50
2006,12,01,09,36,3.50
2006,12,01,09,37,3.60
2006,12,01,09,38,3.60
2006,12,01,09,39,3.70
2006,12,01,09,40,3.80
2006,12,01,09,41,3.80
2006,12,01,09,42,3.90
2006,12,01,09,43,4.00
2006,12,01,09,44,4.00
2006,12,01,09,45,4.00
2006,12,01,09,46,4.10
2006,12,01,09,47,4.10
2006,12,01,09,48,4.20
2006,12,01,09,49,4.20
2006,12,01,09,50,4.30
2006,12,01,09,51,4.30
2006,12,01,09,52,4.30
2006,12,01,09,53,4.30
2006,12,01,09,54,4.30
2006,12,01,09,55,4.30
2006,12,01,09,56,4.30
2006,12,01,09,57,4.40
2006,12,01,09,58,4.40
2006,12,01,09,59,4.50
2006,12,01,10,00,4.50
2006,12,01,10,01,4.60
2006,12,01,10,02,4.60
2006,12,01,10,03,4.70
2006,12,01,10,04,4.80
2006,12,01,10,05,4.90
2006,12,01,10,06,5.10
2006,12,01,10,07,5.10
2006,12,01,10,08,5.20
2006,12,01,10,09,5.20
2006,12,01,10,10,5.30
2006,12,01,10,11,5.30
2006,12,01,10,12,5.40
2006,12,01,10,13,5.40
2006,12,01,10,14,5.50
2006,12,01,10,15,5.60
2006,12,01,10,16,5.60
2006,12,01,10,17,5.70
2006,12,01,10,18,5.70
2006,12,01,10,19,5.80
2006,12,01,10,20,5.80
2006,12,01,10,21,5.90
2006,12,01,10,22,5.90
2006,12,01,10,23,5.90
2006,12,01,10,24,5.90
2006,12,01,10,25,6.00
2006,12,01,10,26,6.00
2006,12,01,10,27,6.00
2006,12,01,10,28,6.00
2006,12,01,10,29,6.00
2006,12,01,10,30,6.00
2006,12,01,10,31,6.00
2006,12,01,10,32,6.10
2006,12,01,10,33,6.10
2006,12,01,10,34,6.10
2006,12,01,10,35,6.10
2006,12,01,10,36,6.10
2006,12,01,10,37,6.20
2006,12,01,10,38,6.20
2006,12,01,10,39,6.20
2006,12,01,10,40,6.20
2006,12,01,10,41,6.30
2006,12,01,10,42,6.40
2006,12,01,10,43,6.40
2006,12,01,10,44,6.40
2006,12,01,10,45,6.40
2006,12,01,10,46,6.40
2006,12,01,10,47,6.40
2006,12,01,10,48,6.50
2006,12,01,10,49,6.60
2006,12,01,10,50,6.60
2006,12,01,10,51,6.60
2006,12,01,10,52,6.70
2006,12,01,10,53,6.70
2006,12,01,10,54,6.70
2006,12,01,10,55,6.80
2006,12,01,10,56,6.80
2006,12,01,10,57,6.80
2006,12,01,10,58,6.80
2006,12,01,10,59,6.80
2006,12,01,11,00,6.90
2006,12,01,11,01,6.90
2006,12,01,11,02,6.90
2006,12,01,11,03,6.90
2006,12,01,11,04,6.90
2006,12,01,11,05,6.90
2006,12,01,11,06,7.00
2006,12,01,11,07,7.00
2006,12,01,11,08,7.00
2006,12,01,11,09,6.90
2006,12,01,11,10,6.90
2006,12,01,11,11,6.90
2006,12,01,11,12,6.90
2006,12,01,11,13,6.90
2006,12,01,11,14,6.90
2006,12,01,11,15,6.90
2006,12,01,11,16,7.00
2006,12,01,11,17,7.00
2006,12,01,11,18,7.00
2006,12,01,11,19,7.00
2006,12,01,11,20,7.10
2006,12,01,11,21,7.10
2006,12,01,11,22,7.10
2006,12,01,11,23,7.20
2006,12,01,11,24,7.20
2006,12,01,11,25,7.20
2006,12,01,11,26,7.20
2006,12,01,11,27,7.20
2006,12,01,11,28,7.30
2006,12,01,11,29,7.30
2006,12,01,11,30,7.30
2006,12,01,11,31,7.20
2006,12,01,11,32,7.20
2006,12,01,11,33,7.20
2006,12,01,11,34,7.20
2006,12,01,11,35,7.20
2006,12,01,11,36,7.20
2006,12,01,11,37,7.20
2006,12,01,11,38,7.10
2006,12,01,11,39,7.00
2006,12,01,11,40,7.00
2006,12,01,11,41,6.90
2006,12,01,11,42,6.90
2006,12,01,11,43,6.80
2006,12,01,11,44,6.80
2006,12,01,11,45,6.80
2006,12,01,11,46,6.80
2006,12,01,11,47,6.90
2006,12,01,11,48,7.00
2006,12,01,11,49,7.00
2006,12,01,11,50,7.00
2006,12,01,11,51,7.10
2006,12,01,11,52,7.10
2006,12,01,11,53,7.10
2006,12,01,11,54,7.10
2006,12,01,11,55,7.20
2006,12,01,11,56,7.20
2006,12,01,11,57,7.20
2006,12,01,11,58,7.20
2006,12,01,11,59,7.20
2006,12,01,12,00,7.20
2006,12,01,12,01,7.20
2006,12,01,12,02,7.10
2006,12,01,12,03,7.10
2006,12,01,12,04,7.10
2006,12,01,12,05,7.10
2006,12,01,12,06,7.20
2006,12,01,12,07,7.20
2006,12,01,12,08,7.30
2006,12,01,12,09,7.30
2006,12,01,12,10,7.30
2006,12,01,12,11,7.30
2006,12,01,12,12,7.30
2006,12,01,12,13,7.30
2006,12,01,12,14,7.30
2006,12,01,12,15,7.40
2006,12,01,12,16,7.40
2006,12,01,12,17,7.40
2006,12,01,12,18,7.50
2006,12,01,12,19,7.50
2006,12,01,12,20,7.50
2006,12,01,12,21,7.50
2006,12,01,12,22,7.50
2006,12,01,12,23,7.50
2006,12,01,12,24,7.50
2006,12,01,12,25,7.50
2006,12,01,12,26,7.40
2006,12,01,12,27,7.30
2006,12,01,12,28,7.30
2006,12,01,12,29,7.30
2006,12,01,12,30,7.30
2006,12,01,12,31,7.30
2006,12,01,12,32,7.40
2006,12,01,12,33,7.40
2006,12,01,12,34,7.40
2006,12,01,12,35,7.40
2006,12,01,12,36,7.40
2006,12,01,12,37,7.30
2006,12,01,12,38,7.30
2006,12,01,12,39,7.30
2006,12,01,12,40,7.30
2006,12,01,12,41,7.20
2006,12,01,12,42,7.20
2006,12,01,12,43,7.10
2006,12,01,12,44,7.10
2006,12,01,12,45,7.00
2006,12,01,12,46,7.00
2006,12,01,12,47,6.90
2006,12,01,12,48,6.90
2006,12,01,12,49,6.90
2006,12,01,12,50,6.90
2006,12,01,12,51,6.80
2006,12,01,12,52,6.80
2006,12,01,12,53,6.80
2006,12,01,12,54,6.80
2006,12,01,12,55,6.80
2006,12,01,12,56,6.80
2006,12,01,12,57,6.80
2006,12,01,12,58,6.80
2006,12,01,12,59,6.70
2006,12,01,13,00,6.70
2006,12,01,13,01,6.60
2006,12,01,13,02,6.60
2006,12,01,13,03,6.60
2006,12,01,13,04,6.60
2006,12,01,13,05,6.60
2006,12,01,13,06,6.50
2006,12,01,13,07,6.50
2006,12,01,13,08,6.40
2006,12,01,13,09,6.40
2006,12,01,13,10,6.40
2006,12,01,13,11,6.40
2006,12,01,13,12,6.40
2006,12,01,13,13,6.40
2006,12,01,13,14,6.40
2006,12,01,13,15,6.40
2006,12,01,13,16,6.40
2006,12,01,13,17,6.40
2006,12,01,13,18,6.50
2006,12,01,13,19,6.60
2006,12,01,13,20,6.60
2006,12,01,13,21,6.60
2006,12,01,13,22,6.60
2006,12,01,13,23,6.70
2006,12,01,13,24,6.70
2006,12,01,13,25,6.70
2006,12,01,13,26,6.70
2006,12,01,13,27,6.70
2006,12,01,13,28,6.70
2006,12,01,13,29,6.70
2006,12,01,13,30,6.80
2006,12,01,13,31,6.80
2006,12,01,13,32,6.80
2006,12,01,13,33,6.80
2006,12,01,13,34,6.80
2006,12,01,13,35,6.80
2006,12,01,13,36,6.90
2006,12,01,13,37,7.00
2006,12,01,13,38,7.00
2006,12,01,13,39,7.00
2006,12,01,13,40,7.00
2006,12,01,13,41,7.00
2006,12,01,13,42,7.10
2006,12,01,13,43,7.10
2006,12,01,13,44,7.20
2006,12,01,13,45,7.20
2006,12,01,13,46,7.30
2006,12,01,13,47,7.30
2006,12,01,13,48,7.20
2006,12,01,13,49,7.20
2006,12,01,13,50,7.20
2006,12,01,13,51,7.20
2006,12,01,13,52,7.10
2006,12,01,13,53,7.10
2006,12,01,13,54,7.20
2006,12,01,13,55,7.20
2006,12,01,13,56,7.30
2006,12,01,13,57,7.30
2006,12,01,13,58,7.30
2006,12,01,13,59,7.30
2006,12,01,14,00,7.30
2006,12,01,14,01,7.30
2006,12,01,14,02,7.20
2006,12,01,14,03,7.20
2006,12,01,14,04,7.20
2006,12,01,14,05,7.20
2006,12,01,14,06,7.20
2006,12,01,14,07,7.20
2006,12,01,14,08,7.10
2006,12,01,14,09,7.20
2006,12,01,14,10,7.10
2006,12,01,14,11,7.00
2006,12,01,14,12,7.00
2006,12,01,14,13,7.00
2006,12,01,14,14,7.00
2006,12,01,14,15,7.00
2006,12,01,14,16,7.00
2006,12,01,14,17,7.00
2006,12,01,14,18,7.00
2006,12,01,14,19,6.90
2006,12,01,14,20,6.90
2006,12,01,14,21,6.90
2006,12,01,14,22,7.00
2006,12,01,14,23,7.00
2006,12,01,14,24,7.00
2006,12,01,14,25,7.00
2006,12,01,14,26,7.00
2006,12,01,14,27,7.00
2006,12,01,14,28,7.00
2006,12,01,14,29,6.90
2006,12,01,14,30,6.90
2006,12,01,14,31,6.80
2006,12,01,14,32,6.80
2006,12,01,14,33,6.80
2006,12,01,14,34,6.80
2006,12,01,14,35,6.80
2006,12,01,14,36,6.90
2006,12,01,14,37,6.90
2006,12,01,14,38,6.90
2006,12,01,14,39,6.90
2006,12,01,14,40,7.00
2006,12,01,14,41,7.00
2006,12,01,14,42,7.10
2006,12,01,14,43,7.10
2006,12,01,14,44,7.10
2006,12,01,14,45,7.20
2006,12,01,14,46,7.10
2006,12,01,14,47,7.00
2006,12,01,14,48,6.90
2006,12,01,14,49,6.80
2006,12,01,14,50,6.80
2006,12,01,14,51,6.80
2006,12,01,14,52,6.80
2006,12,01,14,53,6.80
2006,12,01,14,54,6.70
2006,12,01,14,55,6.70
2006,12,01,14,56,6.70
2006,12,01,14,57,6.80
2006,12,01,14,58,6.70
2006,12,01,14,59,6.70
2006,12,01,15,00,6.60
2006,12,01,15,01,6.60
2006,12,01,15,02,6.60
2006,12,01,15,03,6.50
2006,12,01,15,04,6.40
2006,12,01,15,05,6.40
2006,12,01,15,06,6.40
2006,12,01,15,07,6.40
2006,12,01,15,08,6.40
2006,12,01,15,09,6.30
2006,12,01,15,10,6.30
2006,12,01,15,11,6.20
2006,12,01,15,12,6.20
2006,12,01,15,13,6.20
2006,12,01,15,14,6.20
2006,12,01,15,15,6.20
2006,12,01,15,16,6.10
2006,12,01,15,17,6.10
2006,12,01,15,18,6.10
2006,12,01,15,19,6.10
2006,12,01,15,20,6.10
2006,12,01,15,21,6.00
2006,12,01,15,22,6.00
2006,12,01,15,23,6.00
2006,12,01,15,24,6.00
2006,12,01,15,25,6.00
2006,12,01,15,26,6.00
2006,12,01,15,27,5.90
2006,12,01,15,28,5.90
2006,12,01,15,29,5.90
2006,12,01,15,30,5.90
2006,12,01,15,31,5.90
2006,12,01,15,32,5.80
2006,12,01,15,33,5.80
2006,12,01,15,34,5.80
2006,12,01,15,35,5.70
2006,12,01,15,36,5.70
2006,12,01,15,37,5.70
2006,12,01,15,38,5.70
2006,12,01,15,39,5.70
2006,12,01,15,40,5.70
2006,12,01,15,41,5.70
2006,12,01,15,42,5.70
2006,12,01,15,43,5.60
2006,12,01,15,44,5.60
2006,12,01,15,45,5.60
2006,12,01,15,46,5.60
2006,12,01,15,47,5.60
2006,12,01,15,48,5.60
2006,12,01,15,49,5.60
2006,12,01,15,50,5.50
2006,12,01,15,51,5.50
2006,12,01,15,52,5.50
2006,12,01,15,53,5.50
2006,12,01,15,54,5.50
2006,12,01,15,55,5.50
2006,12,01,15,56,5.50
2006,12,01,15,57,5.50
2006,12,01,15,58,5.50
2006,12,01,15,59,5.50
2006,12,01,16,00,5.50
2006,12,01,16,01,5.50
2006,12,01,16,02,5.50
2006,12,01,16,03,5.50
2006,12,01,16,04,5.50
2006,12,01,16,05,5.50
2006,12,01,16,06,5.50
2006,12,01,16,07,5.50
2006,12,01,16,08,5.50
2006,12,01,16,09,5.50
2006,12,01,16,10,5.40
2006,12,01,16,11,5.40
2006,12,01,16,12,5.40
2006,12,01,16,13,5.40
2006,12,01,16,14,5.40
2006,12,01,16,15,5.40
2006,12,01,16,16,5.40
2006,12,01,16,17,5.40
2006,12,01,16,18,5.40
2006,12,01,16,19,5.40
2006,12,01,16,20,5.40
2006,12,01,16,21,5.40
2006,12,01,16,22,5.30
2006,12,01,16,23,5.30
2006,12,01,16,24,5.30
2006,12,01,16,25,5.30
2006,12,01,16,26,5.30
2006,12,01,16,27,5.30
2006,12,01,16,28,5.30
2006,12,01,16,29,5.30
2006,12,01,16,30,5.30
2006,12,01,16,31,5.30
2006,12,01,16,32,5.30
2006,12,01,16,33,5.30
2006,12,01,16,34,5.30
2006,12,01,16,35,5.30
2006,12,01,16,36,5.20
2006,12,01,16,37,5.20
2006,12,01,16,38,5.20
2006,12,01,16,39,5.20
2006,12,01,16,40,5.20
2006,12,01,16,41,5.20
2006,12,01,16,42,5.20
2006,12,01,16,43,5.30
2006,12,01,16,44,5.30
2006,12,01,16,45,5.30
2006,12,01,16,46,5.30
2006,12,01,16,47,5.30
2006,12,01,16,48,5.30
2006,12,01,16,49,5.20
2006,12,01,16,50,5.20
2006,12,01,16,51,5.20
2006,12,01,16,52,5.20
2006,12,01,16,53,5.20
2006,12,01,16,54,5.20
2006,12,01,16,55,5.20
2006,12,01,16,56,5.20
2006,12,01,16,57,5.20
2006,12,01,16,58,5.10
2006,12,01,16,59,5.10
2006,12,01,17,00,5.10
2006,12,01,17,01,5.10
2006,12,01,17,02,5.10
2006,12,01,17,03,5.10
2006,12,01,17,04,5.10
2006,12,01,17,05,5.10
2006,12,01,17,06,5.10
2006,12,01,17,07,5.10
2006,12,01,17,08,5.00
2006,12,01,17,09,4.90
2006,12,01,17,10,4.90
2006,12,01,17,11,4.90
2006,12,01,17,12,4.90
2006,12,01,17,13,4.90
2006,12,01,17,14,4.80
2006,12,01,17,15,4.80
2006,12,01,17,16,4.70
2006,12,01,17,17,4.70
2006,12,01,17,18,4.70
2006,12,01,17,19,4.70
2006,12,01,17,20,4.70
2006,12,01,17,21,4.70
2006,12,01,17,22,4.70
2006,12,01,17,23,4.70
2006,12,01,17,24,4.70
2006,12,01,17,25,4.70
2006,12,01,17,26,4.70
2006,12,01,17,27,4.70
2006,12,01,17,28,4.70
2006,12,01,17,29,4.70
2006,12,01,17,30,4.70
2006,12,01,17,31,4.70
2006,12,01,17,32,4.70
2006,12,01,17,33,4.70
2006,12,01,17,34,4.70
2006,12,01,17,35,4.70
2006,12,01,17,36,4.70
2006,12,01,17,37,4.70
2006,12,01,17,38,4.70
2006,12,01,17,39,4.70
2006,12,01,17,40,4.70
2006,12,01,17,41,4.70
2006,12,01,17,42,4.70
2006,12,01,17,43,4.70
2006,12,01,17,44,4.70
2006,12,01,17,45,4.60
2006,12,01,17,46,4.60
2006,12,01,17,47,4.60
2006,12,01,17,48,4.60
2006,12,01,17,49,4.60
2006,12,01,17,50,4.60
2006,12,01,17,51,4.60
2006,12,01,17,52,4.60
2006,12,01,17,53,4.60
2006,12,01,17,54,4.60
2006,12,01,17,55,4.60
2006,12,01,17,56,4.60
2006,12,01,17,57,4.60
2006,12,01,17,58,4.60
2006,12,01,17,59,4.60
2006,12,01,18,00,4.60
2006,12,01,18,01,4.60
2006,12,01,18,02,4.60
2006,12,01,18,03,4.60
2006,12,01,18,04,4.60
2006,12,01,18,05,4.60
2006,12,01,18,06,4.60